Flag for Australia Weather past 2 weeks in The Settlement, Christmas Island, Australia

Now
75 °F

Passing clouds.


Feels Like: 76 °F
Forecast: 74 / 81 °F
Wind: 7 mph from East

Location: Christmas Island Aerodrome

Current Time: Aug 20, 2014 at 7:53:35 PM

Latest Report: Aug 20, 2014 at 7:00 PM


Visibility: N/A

Pressure: 29.95 "Hg

Humidity: 78%

Dew point: 68 °F

Location of The SettlementLocation

Historic Weather in The Settlement — Graph

°F

The Settlement temperature yesterday

Maximum temperature yesterday: 79 °F (at 1:00 PM)
Minimum temperature yesterday: 73 °F (at 1:00 AM)
Average temperature yesterday: 75 °F

Past Weeks' High & Low Weather Summary

 TemperatureHumidityPressure
High81 °F (Aug 9, 2:00 PM)100% (Aug 5, 10:00 PM)30.07 "Hg (Aug 5, 10:00 PM)
Low73 °F (Aug 12, 6:00 AM)58% (Aug 12, 9:00 AM)29.89 "Hg (Aug 5, 6:00 PM)
Average77 °F77%29.98 "Hg
* Reported Aug 5 6:00 PM — Aug 20 6:00 PM, The Settlement, Weather by CustomWeather, © 2014

Note: Actual official high and low records may vary slightly from our data, if they occured in-between our weather recording intervals... More about our weather records

Advertising

The Settlement weather history for previous 24 hours

 ConditionsComfort  
Time TempWeatherWind HumidityBarometerVisibility
6:00 PM
Aug 20
75 °FPassing clouds.9 mph78%29.95 "HgN/A
5:00 PM75 °FScattered clouds.10 mph78%29.95 "HgN/A
4:00 PM77 °FBroken clouds.12 mph74%29.92 "HgN/A
3:00 PM79 °FScattered clouds.12 mph65%29.92 "HgN/A
2:00 PM79 °FBroken clouds.13 mph70%29.95 "HgN/A
1:00 PM79 °FScattered clouds.12 mph65%29.98 "HgN/A
12:00 PM79 °FScattered clouds.14 mph65%29.98 "HgN/A
11:00 AM79 °FScattered clouds.13 mph65%30.01 "HgN/A
10:00 AM77 °FBroken clouds.12 mph69%30.01 "HgN/A
9:00 AM75 °FMostly cloudy.9 mph74%30.04 "HgN/A
8:00 AM77 °FCloudy.12 mph74%30.01 "HgN/A
7:00 AM75 °FPartly sunny.10 mph78%30.01 "HgN/A
6:00 AM73 °FPassing clouds.7 mph78%29.98 "HgN/A
5:00 AM73 °FOvercast.9 mph78%29.95 "HgN/A
4:00 AM73 °FPassing clouds.9 mph78%29.95 "HgN/A
3:00 AM73 °FPassing clouds.10 mph78%29.95 "HgN/A
2:00 AM73 °FPassing clouds.8 mph83%29.95 "HgN/A
1:00 AM73 °FPassing clouds.9 mph78%29.98 "HgN/A
12:00 AM73 °FPartly cloudy.10 mph78%30.01 "HgN/A
11:00 PM
Aug 19
73 °FLight rain. Mostly cloudy.10 mph83%30.01 "HgN/A
10:00 PM73 °FOvercast.10 mph78%30.01 "HgN/A
9:00 PM75 °FOvercast.12 mph74%30.01 "HgN/A
8:00 PM73 °FPassing clouds.9 mph78%30.01 "HgN/A
7:00 PM75 °FPartly cloudy.10 mph74%29.98 "HgN/A
Weather by CustomWeather, © 2014

See weather overviewHow to use our weather pages